TimeCST,TemperatureF,Dew PointF,Humidity,Sea Level PressureIn,VisibilityMPH,Wind Direction,Wind SpeedMPH,Gust SpeedMPH,PrecipitationIn,Events,Conditions,WindDirDegrees,DateUTC
12:15 AM,31.1,21.2,67,30.27,10.0,SSW,8.1,-,N/A,,Clear,200,2013-01-05 06:15:00
12:35 AM,30.9,21.2,67,30.27,10.0,SSW,8.1,-,N/A,,Clear,200,2013-01-05 06:35:00
12:55 AM,30.4,21.0,68,30.27,10.0,South,6.9,-,N/A,,Clear,190,2013-01-05 06:55:00
1:15 AM,29.5,20.8,70,30.27,10.0,South,6.9,-,N/A,,Clear,190,2013-01-05 07:15:00
1:35 AM,30.0,20.8,69,30.27,10.0,South,6.9,-,N/A,,Clear,190,2013-01-05 07:35:00
1:55 AM,30.0,21.0,69,30.28,10.0,SSW,8.1,-,N/A,,Clear,200,2013-01-05 07:55:00
2:15 AM,30.4,21.2,69,30.28,10.0,SSW,8.1,-,N/A,,Clear,200,2013-01-05 08:15:00
2:35 AM,30.6,21.2,68,30.28,10.0,South,8.1,-,N/A,,Clear,190,2013-01-05 08:35:00
2:55 AM,30.9,21.4,68,30.27,10.0,SSW,8.1,-,N/A,,Clear,200,2013-01-05 08:55:00
3:15 AM,30.2,21.2,69,30.28,10.0,SSW,8.1,-,N/A,,Clear,200,2013-01-05 09:15:00
3:35 AM,30.0,21.2,70,30.27,10.0,SSW,6.9,-,N/A,,Clear,200,2013-01-05 09:35:00
3:55 AM,29.8,21.0,70,30.26,10.0,South,5.8,-,N/A,,Clear,180,2013-01-05 09:55:00
4:15 AM,28.2,20.5,73,30.25,10.0,South,5.8,-,N/A,,Clear,190,2013-01-05 10:15:00
4:35 AM,28.8,21.0,73,30.24,10.0,South,4.6,-,N/A,,Clear,190,2013-01-05 10:35:00
4:55 AM,27.9,20.7,74,30.25,10.0,South,6.9,-,N/A,,Clear,190,2013-01-05 10:55:00
5:15 AM,29.3,21.4,72,30.25,10.0,South,8.1,-,N/A,,Clear,190,2013-01-05 11:15:00
5:35 AM,30.2,21.2,69,30.25,10.0,South,8.1,-,N/A,,Clear,180,2013-01-05 11:35:00
5:55 AM,29.5,21.7,73,30.25,10.0,South,6.9,-,N/A,,Clear,190,2013-01-05 11:55:00
6:15 AM,30.2,23.0,75,30.25,10.0,Calm,Calm,-,N/A,,Clear,0,2013-01-05 12:15:00
6:35 AM,30.2,23.0,75,30.25,10.0,Calm,Calm,-,N/A,,Clear,0,2013-01-05 12:35:00
6:55 AM,31.1,23.0,72,30.25,10.0,South,8.1,-,N/A,,Clear,190,2013-01-05 12:55:00
7:15 AM,32.0,23.9,72,30.26,10.0,SSW,9.2,-,N/A,,Clear,200,2013-01-05 13:15:00
7:35 AM,32.4,24.3,72,30.26,10.0,SSW,9.2,-,N/A,,Clear,200,2013-01-05 13:35:00
7:55 AM,32.7,24.8,73,30.25,10.0,SSW,8.1,-,N/A,,Clear,210,2013-01-05 13:55:00
8:15 AM,33.4,25.3,72,30.25,10.0,SSW,8.1,-,N/A,,Clear,200,2013-01-05 14:15:00
8:35 AM,33.8,25.5,72,30.25,10.0,South,9.2,-,N/A,,Clear,190,2013-01-05 14:35:00
8:55 AM,33.8,25.7,72,30.26,10.0,SSW,11.5,-,N/A,,Clear,210,2013-01-05 14:55:00
9:15 AM,34.7,26.1,71,30.26,10.0,SSW,12.7,17.3,N/A,,Clear,200,2013-01-05 15:15:00
9:35 AM,35.4,26.6,70,30.26,10.0,SSW,11.5,-,N/A,,Scattered Clouds,210,2013-01-05 15:35:00
9:55 AM,35.6,27.0,71,30.26,10.0,SW,10.4,-,N/A,,Scattered Clouds,220,2013-01-05 15:55:00
10:15 AM,35.1,27.5,74,30.27,10.0,SW,10.4,-,N/A,,Mostly Cloudy,220,2013-01-05 16:15:00
10:35 AM,35.8,27.9,73,30.27,10.0,SW,9.2,-,N/A,,Mostly Cloudy,230,2013-01-05 16:35:00
10:55 AM,36.5,28.9,74,30.25,10.0,Calm,Calm,-,N/A,,Scattered Clouds,0,2013-01-05 16:55:00
11:35 AM,37.9,29.7,72,30.22,10.0,SW,9.2,-,N/A,,Mostly Cloudy,220,2013-01-05 17:35:00
11:55 AM,38.3,30.2,73,30.20,10.0,SSW,8.1,-,N/A,,Scattered Clouds,200,2013-01-05 17:55:00
12:15 PM,38.5,30.7,74,30.18,10.0,SSW,5.8,-,N/A,,Scattered Clouds,200,2013-01-05 18:15:00
12:35 PM,39.2,30.2,70,30.17,10.0,SSE,5.8,-,N/A,,Mostly Cloudy,160,2013-01-05 18:35:00
12:55 PM,40.1,30.9,70,30.16,10.0,South,8.1,-,N/A,,Overcast,170,2013-01-05 18:55:00
1:15 PM,39.4,31.1,72,30.15,10.0,South,8.1,-,N/A,,Overcast,190,2013-01-05 19:15:00
1:35 PM,39.6,31.1,72,30.14,10.0,Calm,Calm,-,N/A,,Overcast,0,2013-01-05 19:35:00
1:55 PM,40.1,31.1,70,30.13,10.0,South,6.9,-,N/A,,Overcast,190,2013-01-05 19:55:00
2:15 PM,40.1,31.1,70,30.13,10.0,SSW,3.5,-,N/A,,Overcast,210,2013-01-05 20:15:00
2:35 PM,40.1,31.5,71,30.13,10.0,SSW,9.2,-,N/A,,Overcast,200,2013-01-05 20:35:00
2:55 PM,40.1,31.5,71,30.13,10.0,SSW,8.1,-,N/A,,Overcast,200,2013-01-05 20:55:00
3:15 PM,40.3,31.8,72,30.12,10.0,SW,10.4,-,N/A,,Overcast,220,2013-01-05 21:15:00
3:35 PM,39.6,32.0,74,30.13,10.0,WSW,12.7,-,N/A,,Overcast,240,2013-01-05 21:35:00
3:55 PM,39.2,32.4,76,30.12,10.0,SW,10.4,-,N/A,,Light Drizzle,220,2013-01-05 21:55:00
4:15 PM,38.3,33.1,81,30.13,7.0,SW,11.5,-,N/A,Rain,Light Rain,220,2013-01-05 22:15:00
4:55 PM,38.3,34.2,85,30.11,10.0,SSW,8.1,-,N/A,,Overcast,200,2013-01-05 22:55:00
5:15 PM,37.9,34.5,87,30.12,7.0,SSW,6.9,-,N/A,,Drizzle,200,2013-01-05 23:15:00
5:35 PM,37.9,34.5,87,30.12,7.0,SSW,9.2,-,N/A,Rain,Light Rain,200,2013-01-05 23:35:00
5:55 PM,37.9,34.2,86,30.12,10.0,SSW,10.4,16.1,N/A,Rain,Light Rain,200,2013-01-05 23:55:00
6:15 PM,38.3,34.2,85,30.13,10.0,SSW,9.2,-,N/A,,Light Drizzle,200,2013-01-06 00:15:00
6:35 PM,38.3,33.8,84,30.12,10.0,SSW,10.4,-,N/A,,Overcast,210,2013-01-06 00:35:00
6:55 PM,39.2,33.8,81,30.12,10.0,SSW,10.4,-,N/A,,Overcast,210,2013-01-06 00:55:00
7:15 PM,38.3,33.3,82,30.12,10.0,SW,9.2,-,N/A,,Overcast,220,2013-01-06 01:15:00
7:35 PM,39.2,33.8,81,30.12,10.0,SSW,8.1,-,N/A,,Overcast,210,2013-01-06 01:35:00
7:55 PM,38.3,33.3,82,30.11,10.0,SSW,8.1,-,N/A,,Overcast,200,2013-01-06 01:55:00
8:15 PM,38.5,33.1,81,30.11,10.0,South,9.2,-,N/A,,Overcast,190,2013-01-06 02:15:00
8:35 PM,38.7,32.9,80,30.10,10.0,SSW,10.4,-,N/A,,Overcast,200,2013-01-06 02:35:00
8:55 PM,38.7,32.5,79,30.10,10.0,SSW,10.4,-,N/A,,Overcast,210,2013-01-06 02:55:00
9:15 PM,39.0,32.4,77,30.10,10.0,SSW,8.1,-,N/A,,Overcast,210,2013-01-06 03:15:00
9:35 PM,39.2,32.4,76,30.09,10.0,SSW,10.4,-,N/A,,Overcast,210,2013-01-06 03:35:00
9:55 PM,39.2,32.4,76,30.08,10.0,SSW,10.4,-,N/A,,Overcast,210,2013-01-06 03:55:00
10:15 PM,39.4,32.4,76,30.08,10.0,SSW,11.5,-,N/A,,Overcast,210,2013-01-06 04:15:00
10:35 PM,39.6,32.4,75,30.07,10.0,SSW,11.5,-,N/A,,Overcast,210,2013-01-06 04:35:00
10:55 PM,39.6,32.5,76,30.07,10.0,SW,10.4,-,N/A,,Overcast,220,2013-01-06 04:55:00
11:15 PM,39.6,32.5,76,30.06,10.0,SW,12.7,17.3,N/A,,Overcast,220,2013-01-06 05:15:00
11:35 PM,39.4,32.9,78,30.06,10.0,SW,10.4,-,N/A,,Overcast,220,2013-01-06 05:35:00
11:55 PM,39.2,32.9,78,30.05,10.0,SW,11.5,-,N/A,,Overcast,220,2013-01-06 05:55:00